[[[{"header":{"parameterUnit":"kt","parameterCategory":2,"dx":1,"dy":1,"la1":30.253999710083008,"la2":30.299108505249023,"lo1":-89.0895004272461,"lo2":-89.04439544677734,"nx":28,"ny":28,"refTime":"2022-10-26T21:00:00:Z","depth":0,"parameterNumber":1,"parameterNumberName":"U-component_of_WINDS"},"data":[-1.3263,-1.3395,-1.3418,-1.358,-1.3627,-1.3743,-1.3792,-1.3858,-1.3917,-1.4058,-1.4144,-1.4182,-1.4252,-1.4362,-1.4457,-1.4473,-1.4514,-1.4543,-1.4557,-1.4401,-1.4382,-1.4363,-1.4334,-1.455,-1.455,-1.4717,-1.4719,-1.472,-1.3145,-1.3193,-1.3285,-1.339,-1.3469,-1.3454,-1.3537,-1.3606,-1.371,-1.3783,-1.3869,-1.3997,-1.4101,-1.4162,-1.4268,-1.4332,-1.4334,-1.436,-1.4358,-1.437,-1.4203,-1.4172,-1.4357,-1.4357,-1.4357,-1.4357,-1.4357,-1.4357,-1.2938,-1.3016,-1.3093,-1.3193,-1.3252,-1.3323,-1.3402,-1.3447,-1.3538,-1.3649,-1.366,-1.378,-1.3859,-1.3998,-1.4051,-1.4147,-1.4123,-1.4161,-1.4171,-1.4182,-1.419,-1.3952,-1.4165,-1.4165,-1.4164,-1.4164,-1.4164,0,-1.2795,-1.2809,-1.2899,-1.2996,-1.307,-1.3148,-1.3224,-1.3273,-1.3313,-1.3388,-1.3498,-1.3566,-1.37,-1.3809,-1.3913,-1.3962,-1.396,-1.396,-1.3987,-1.3987,-1.3972,-1.3986,-1.3716,-1.3956,-1.3954,-1.3953,-1.3952,-1.3951,-1.2592,-1.268,-1.2771,-1.2832,-1.2879,-1.2975,-1.3038,-1.3067,-1.3133,-1.3231,-1.33,-1.3408,-1.3496,-1.367,-1.3725,-1.3827,-1.3829,-1.3917,-1.3844,-1.3838,-1.3836,-1.3832,-1.3843,-1.3933,-1.3936,-1.3938,-1.3939,0,-1.2477,-1.2514,-1.2658,-1.2741,-1.2764,-1.2855,-1.2928,-1.3008,-1.3043,-1.3158,-1.3187,-1.3244,-1.3353,-1.3394,-1.3527,-1.3545,-1.3701,-1.3696,-1.3674,-1.3677,-1.3764,-1.3757,-1.4032,-1.4072,-1.3842,-1.3844,-1.3846,0,-1.2321,-1.2435,-1.2485,-1.2567,-1.2695,-1.272,-1.2847,-1.289,-1.2958,-1.305,-1.305,-1.3137,-1.3175,-1.3267,-1.3295,-1.3428,-1.3452,-1.3476,-1.3484,-1.348,-1.3477,-1.3521,-1.3513,-1.349,-1.3489,-1.3487,-1.3486,0,-1.214,-1.23,-1.2431,-1.2474,-1.2576,-1.2637,-1.2683,-1.276,-1.2822,-1.2909,-1.2951,-1.305,-1.3106,-1.3184,-1.3219,-1.3168,-1.3382,-1.332,-1.3407,-1.3407,-1.3458,-1.3455,-1.3683,-1.3484,-1.3484,-1.3483,-1.3483,0,-1.2023,-1.2107,-1.2291,-1.2376,-1.2418,-1.2505,-1.2604,-1.2688,-1.2769,-1.2792,-1.2861,-1.2868,-1.2985,-1.2921,-1.3084,-1.3009,-1.3064,-1.3097,-1.3104,-1.3122,-1.305,-1.318,-1.3388,-1.3414,-1.3131,-1.3129,-1.3126,0,-1.1807,-1.2003,-1.2027,-1.2201,-1.2298,-1.2293,-1.239,-1.2462,-1.25,-1.2589,-1.2631,-1.2733,-1.2693,-1.2732,-1.2806,-1.2856,-1.2954,-1.2843,-1.2978,-1.2983,-1.2961,-1.3151,-1.3175,-1.3336,-1.3089,-1.3093,-1.3096,0,-1.1646,-1.1767,-1.1797,-1.1848,-1.1946,-1.2027,-1.2137,-1.2244,-1.2302,-1.2381,-1.2478,-1.262,-1.2598,-1.2661,-1.2678,-1.2754,-1.2889,-1.272,-1.2723,-1.2753,-1.3072,-1.3094,-1.3121,-1.2884,-1.2888,-1.2892,-1.3066,0,-1.1467,-1.1569,-1.1649,-1.1761,-1.1829,-1.194,-1.1983,-1.2049,-1.2058,-1.2096,-1.2237,-1.2309,-1.242,-1.2459,-1.247,-1.2629,-1.2611,-1.2585,-1.2531,-1.2653,-1.2713,-1.2736,-1.2439,-1.2437,-1.2436,-1.2435,0,0,-1.1254,-1.1402,-1.1426,-1.1534,-1.1594,-1.1588,-1.1704,-1.1761,-1.1879,-1.1922,-1.189,-1.2103,-1.2163,-1.2331,-1.2372,-1.2416,-1.245,-1.2406,-1.2593,-1.2611,-1.2627,-1.2689,-1.2713,-1.2433,-1.2433,-1.2432,-1.2432,0,-1.1199,-1.1255,-1.1367,-1.1427,-1.1518,-1.1552,-1.1579,-1.1669,-1.17,-1.1836,-1.1834,-1.1923,-1.2093,-1.2159,-1.2214,-1.2384,-1.2381,-1.2414,-1.2493,-1.258,-1.2599,-1.2616,-1.2681,-1.2703,-1.2429,-1.2429,-1.2429,0,-1.1051,-1.1116,-1.1174,-1.1307,-1.1366,-1.1466,-1.1417,-1.1523,-1.1599,-1.1592,-1.1729,-1.1775,-1.1867,-1.2017,-1.2087,-1.2061,-1.2315,-1.2242,-1.2251,-1.2261,-1.2349,-1.2371,-1.2391,-1.2126,-1.2125,-1.2124,0,0,-1.0998,-1.1093,-1.1173,-1.1298,-1.1336,-1.1389,-1.1447,-1.1463,-1.1543,-1.1575,-1.1635,-1.1715,-1.1814,-1.1879,-1.1975,-1.2133,-1.2157,-1.2203,-1.2217,-1.2229,-1.2245,-1.2336,-1.2358,-1.2119,-1.2119,-1.2119,0,0,-1.0974,-1.1071,-1.1066,-1.1216,-1.1291,-1.1381,-1.1457,-1.1454,-1.1543,-1.1536,-1.1571,-1.1594,-1.1735,-1.1782,-1.1714,-1.1957,-1.1901,-1.1918,-1.1922,-1.1941,-1.1955,-1.1943,-1.1678,0,0,0,0,0,-1.0941,-1.1058,-1.1052,-1.1084,-1.1254,-1.1383,-1.1405,-1.1435,-1.1394,-1.1454,-1.1504,-1.1495,-1.1752,-1.1693,-1.1725,-1.1803,-1.2059,-1.2069,-1.208,-1.2122,-1.2141,-1.2157,0,0,0,0,0,0,-1.0953,-1.0992,-1.1049,-1.1143,-1.1181,-1.1379,-1.1317,-1.1328,-1.1389,-1.1385,-1.1485,-1.1498,-1.1527,-1.1678,-1.1707,-1.178,-1.1668,-1.2063,-1.2072,-1.208,-1.2129,-1.2144,-1.2158,0,0,0,0,0,-1.0964,-1.0995,-1.1259,-1.1141,-1.1175,-1.1242,-1.1313,-1.1322,-1.1369,-1.1448,-1.146,-1.1386,-1.1529,-1.1555,-1.1695,-1.1766,-1.1648,-1.1659,-1.2069,-1.2076,-1.2082,-1.2136,0,0,0,0,0,0,-1.0971,-1.1005,-1.1267,-1.1278,-1.1099,-1.1232,-1.1254,-1.1316,-1.1429,-1.1443,-1.135,-1.1346,-1.1531,-1.1551,-1.1571,-1.176,-1.1632,-1.1643,-1.165,-1.2074,-1.208,-1.2085,0,0,0,0,0,0,-1.0988,-1.1015,-1.1272,-1.1217,-1.1223,-1.1222,-1.1242,-1.1366,-1.1431,-1.1325,-1.1325,-1.1347,-1.1501,-1.1549,-1.1564,-1.1757,-1.162,-1.163,-1.1638,-1.1642,-1.2079,-1.2083,0,0,0,0,0,0,-1.1,-1.1023,-1.1215,-1.1219,-1.1223,-1.1354,-1.1333,-1.1506,-1.138,-1.1321,-1.137,-1.1366,-1.15,-1.1516,-1.156,-1.1746,-1.1754,-1.162,-1.1627,-1.1632,-1.1636,0,0,0,0,0,0,0,-1.1009,-1.0851,-1.1198,-1.122,-1.1224,-1.1383,-1.1387,-1.139,-1.1379,-1.1375,-1.1371,-1.1368,-1.1561,-1.1573,-1.1584,-1.1736,0,0,-1.1619,-1.1624,0,0,0,0,0,0,0,0,-1.0842,-1.0849,-1.1199,-1.1201,-1.1204,-1.1384,-1.1386,-1.1389,-1.1379,-1.1375,-1.1372,-1.1369,-1.1564,-1.1573,-1.1583,0,0,0,0,0,0,0,0,0,0,0,0,0,0,0,-1.1199,-1.1201,0,-1.1384,-1.1386,-1.1388,-1.1378,-1.1376,-1.1373,-1.137,-1.1567,-1.1574,-1.1582,0,0,0,0,0,0,0,0,0,0,0,0,0,0,0,0,0,0,0,0,0,0,0,0,0,0,0,0,0,0,0,0,0,0,0,0,0,0,0,0,0,0,0,0,0,0,0,0,0,0,0,0,0,0,0,0,0,0,0,0,0,0,0,0,0,0,0,0,0]}],[{"header":{"parameterUnit":"kt","parameterCategory":2,"dx":1,"dy":1,"la1":30.253999710083008,"la2":30.299108505249023,"lo1":-89.0895004272461,"lo2":-89.04439544677734,"nx":28,"ny":28,"refTime":"2022-10-26T21:00:00:Z","depth":0,"parameterNumber":2,"parameterNumberName":"V-component_of_WINDS"},"data":[-9.1489,-9.1722,-9.1733,-9.2003,-9.2058,-9.2243,-9.2312,-9.2402,-9.2476,-9.2696,-9.2823,-9.2855,-9.2929,-9.3081,-9.3218,-9.3228,-9.3286,-9.3362,-9.3361,-9.3013,-9.2966,-9.292,-9.2867,-9.3374,-9.3375,-9.3721,-9.3724,-9.3727,-9.1235,-9.1293,-9.1439,-9.1587,-9.1711,-9.1645,-9.1755,-9.1863,-9.203,-9.2121,-9.2247,-9.244,-9.2592,-9.2641,-9.2788,-9.2895,-9.2871,-9.2934,-9.2927,-9.294,-9.2568,-9.2512,-9.2951,-9.2951,-9.2951,-9.2951,-9.2951,-9.2951,-9.0777,-9.0916,-9.1012,-9.117,-9.1246,-9.1345,-9.1478,-9.1514,-9.1654,-9.1812,-9.1793,-9.198,-9.2071,-9.225,-9.2311,-9.2456,-9.2386,-9.2457,-9.2476,-9.2495,-9.2516,-9.2019,-9.248,-9.2479,-9.2478,-9.2477,-9.2476,0,-9.0445,-9.0445,-9.0584,-9.0728,-9.0843,-9.0954,-9.1057,-9.1139,-9.1135,-9.1251,-9.1419,-9.1516,-9.1708,-9.1865,-9.2002,-9.2051,-9.1991,-9.1984,-9.2034,-9.2048,-9.2044,-9.2051,-9.1447,-9.1971,-9.1967,-9.1964,-9.1961,-9.196,-8.9985,-9.0146,-9.0249,-9.0346,-9.0404,-9.056,-9.0654,-9.0639,-9.0739,-9.0861,-9.0982,-9.1139,-9.1265,-9.1528,-9.1564,-9.1706,-9.1678,-9.1878,-9.1699,-9.1706,-9.1684,-9.1676,-9.1692,-9.1914,-9.192,-9.1924,-9.1928,0,-8.9726,-8.974,-8.9991,-9.0075,-9.0101,-9.0269,-9.0341,-9.0477,-9.0495,-9.0685,-9.0728,-9.0756,-9.0919,-9.0922,-9.1107,-9.1104,-9.1379,-9.1347,-9.1349,-9.1343,-9.1524,-9.1508,-9.2107,-9.2185,-9.1657,-9.1662,-9.1666,0,-8.934,-8.955,-8.9559,-8.9703,-8.9935,-8.9914,-9.0144,-9.0182,-9.026,-9.0409,-9.0342,-9.0483,-9.0464,-9.0605,-9.06,-9.0824,-9.0858,-9.0869,-9.0866,-9.0878,-9.0877,-9.093,-9.0906,-9.0849,-9.0846,-9.0843,-9.0841,0,-8.8934,-8.9183,-8.9417,-8.9476,-8.9586,-8.9696,-8.9746,-8.9832,-8.9924,-9.0042,-9.0101,-9.0239,-9.0315,-9.0423,-9.0416,-9.0294,-9.0689,-9.052,-9.0701,-9.0701,-9.0789,-9.0784,-9.1312,-9.0837,-9.0836,-9.0835,-9.0834,0,-8.8624,-8.8747,-8.9084,-8.9174,-8.924,-8.9393,-8.953,-8.9661,-8.9756,-8.9764,-8.9856,-8.9811,-9.0006,-8.9839,-9.0107,-8.9951,-9.003,-9.0058,-9.007,-9.009,-8.9903,-9.0203,-9.0704,-9.0758,-9.0105,-9.0099,-9.0094,0,-8.8157,-8.85,-8.8485,-8.8804,-8.8963,-8.8878,-8.9047,-8.9133,-8.9157,-8.9293,-8.9317,-8.9472,-8.9348,-8.9397,-8.9529,-8.956,-8.9762,-8.9532,-8.9729,-8.9736,-8.9709,-9.017,-9.0245,-9.0594,-9.0016,-9.0024,-9.003,0,-8.7796,-8.7929,-8.7987,-8.8053,-8.8165,-8.8296,-8.849,-8.864,-8.8732,-8.8834,-8.8997,-8.9212,-8.9128,-8.9209,-8.9185,-8.9323,-8.9625,-8.9213,-8.9215,-8.9289,-8.9976,-9.0047,-9.0106,-8.9578,-8.9588,-8.9595,-8.9968,0,-8.733,-8.7501,-8.7658,-8.7805,-8.7907,-8.8106,-8.8111,-8.8216,-8.8185,-8.8205,-8.8441,-8.851,-8.866,-8.8726,-8.8695,-8.9009,-8.8957,-8.8865,-8.8703,-8.9004,-8.9128,-8.9178,-8.852,-8.8515,-8.8511,-8.8507,0,0,-8.688,-8.7126,-8.7102,-8.729,-8.7375,-8.7282,-8.7495,-8.7565,-8.771,-8.777,-8.768,-8.7995,-8.8055,-8.8342,-8.8436,-8.8495,-8.8552,-8.8446,-8.886,-8.89,-8.8936,-8.9068,-8.912,-8.85,-8.8499,-8.8497,-8.8496,0,-8.6711,-8.6777,-8.6988,-8.706,-8.7167,-8.7178,-8.7229,-8.7317,-8.734,-8.7571,-8.749,-8.7631,-8.7882,-8.7957,-8.8028,-8.8411,-8.8342,-8.8456,-8.8663,-8.882,-8.8864,-8.8904,-8.9042,-8.9092,-8.8486,-8.8487,-8.8487,0,-8.6358,-8.6424,-8.6526,-8.6713,-8.6782,-8.6946,-8.6778,-8.6957,-8.7079,-8.6965,-8.7196,-8.7234,-8.7333,-8.7603,-8.7723,-8.7644,-8.8151,-8.799,-8.8015,-8.8029,-8.8181,-8.8235,-8.8282,-8.7653,-8.765,-8.7647,0,0,-8.621,-8.6369,-8.6434,-8.6677,-8.6726,-8.6745,-8.6831,-8.6809,-8.6901,-8.6939,-8.6987,-8.7078,-8.7223,-8.732,-8.7456,-8.7751,-8.777,-8.7887,-8.7926,-8.7959,-8.799,-8.815,-8.8203,-8.7636,-8.7636,-8.7635,0,0,-8.6139,-8.6225,-8.6177,-8.646,-8.6552,-8.663,-8.6778,-8.672,-8.6844,-8.6821,-8.6789,-8.6812,-8.7063,-8.7103,-8.6957,-8.7399,-8.7238,-8.7273,-8.7363,-8.7413,-8.7452,-8.7437,-8.6793,0,0,0,0,0,-8.5969,-8.6214,-8.617,-8.6218,-8.6453,-8.6655,-8.6684,-8.6665,-8.6553,-8.667,-8.6701,-8.662,-8.7018,-8.6887,-8.6934,-8.7098,-8.7495,-8.752,-8.7544,-8.7729,-8.7781,-8.7825,0,0,0,0,0,0,-8.5987,-8.6046,-8.6164,-8.6253,-8.6305,-8.6646,-8.6451,-8.6453,-8.654,-8.6521,-8.6617,-8.6623,-8.6608,-8.6862,-8.6905,-8.7061,-8.6778,-8.7505,-8.7526,-8.7545,-8.7747,-8.7789,-8.7826,0,0,0,0,0,-8.6002,-8.6049,-8.6432,-8.6249,-8.6295,-8.6328,-8.6442,-8.6441,-8.6508,-8.6556,-8.656,-8.6486,-8.6613,-8.6648,-8.6887,-8.7042,-8.6749,-8.6765,-8.7518,-8.7535,-8.755,-8.7768,0,0,0,0,0,0,-8.6013,-8.605,-8.644,-8.6453,-8.6155,-8.6308,-8.6332,-8.6432,-8.6537,-8.6543,-8.6422,-8.6406,-8.662,-8.6645,-8.6672,-8.7037,-8.6724,-8.6741,-8.6751,-8.7531,-8.7544,-8.7556,0,0,0,0,0,0,-8.6024,-8.6062,-8.6447,-8.6329,-8.6328,-8.6291,-8.6312,-8.6511,-8.6539,-8.6397,-8.6387,-8.6414,-8.6579,-8.6645,-8.6666,-8.6977,-8.6706,-8.6722,-8.6732,-8.6739,-8.7542,-8.7552,0,0,0,0,0,0,-8.6039,-8.6072,-8.6325,-8.6325,-8.6324,-8.6469,-8.6465,-8.6707,-8.6441,-8.6393,-8.6416,-8.6405,-8.6581,-8.6601,-8.6662,-8.6965,-8.6974,-8.6706,-8.6717,-8.6725,-8.673,0,0,0,0,0,0,0,-8.6052,-8.5842,-8.6363,-8.6322,-8.632,-8.6574,-8.6578,-8.6581,-8.6438,-8.6428,-8.6418,-8.6409,-8.6617,-8.6634,-8.6651,-8.6955,0,0,-8.6705,-8.6712,0,0,0,0,0,0,0,0,-8.5828,-8.5838,-8.6363,-8.6366,-8.6369,-8.6575,-8.6578,-8.6581,-8.6436,-8.6428,-8.6421,-8.6413,-8.6622,-8.6636,-8.665,0,0,0,0,0,0,0,0,0,0,0,0,0,0,0,-8.6364,-8.6366,0,-8.6575,-8.6578,-8.658,-8.6435,-8.6429,-8.6422,-8.6416,-8.6626,-8.6637,-8.6648,0,0,0,0,0,0,0,0,0,0,0,0,0,0,0,0,0,0,0,0,0,0,0,0,0,0,0,0,0,0,0,0,0,0,0,0,0,0,0,0,0,0,0,0,0,0,0,0,0,0,0,0,0,0,0,0,0,0,0,0,0,0,0,0,0,0,0,0,0]}]]]